Weather History for Providence, RI

Change the Weather History Date:

Thursday, March 24, 2011

  Actual Average Record
Temperature  
Mean Temperature 36 °F 41 °F  
Max Temperature 42 °F 50 °F 67 °F (1938)
Min Temperature 30 °F 32 °F 9 °F (1906)
Degree Days  
Heating Degree Days 29 24  
Month to date heating degree days 614 653  
Since 1 July heating degree days 4762 4715  
Cooling Degree Days 0 0  
Month to date cooling degree days 0 0  
Year to date cooling degree days 0 0  
Moisture  
Dew Point 26 °F    
Average Humidity 73    
Maximum Humidity 92    
Minimum Humidity 54    
Precipitation  
Precipitation 0.04 in 0.18 in 1.44 in (1993)
Month to date precipitation 2.10 3.81  
Year to date precipitation 10.65 10.96  
Snow  
Snow 0.60 in 0.10 in 2.80 in (1956)
Month to date snowfall 0.8 4.8  
Since 1 July snowfall 50.3 32.5  
Snow Depth -    
Sea Level Pressure  
Sea Level Pressure 29.66 in    
Wind  
Wind Speed 11 mph (NNE)    
Max Wind Speed 21 mph    
Max Gust Speed 26 mph    
Visibility 8 miles    
Events Snow    
T = Trace of Precipitation, MM = Missing Value Source: NWS Daily Summary

Daily Weather History Graph

Daily Weather History Graph

Search for Another Location

Airport:

Trip Planner

Search our weather history database for the weather conditions in past years. The results will help you decide how hot, cold, wet, or windy it might be!

Date:

Astronomy

Mar. 24, 2011 Rise Set
Actual Time 6:42 AM EDT 7:02 PM EDT
Civil Twilight 6:14 AM EDT 7:29 PM EDT
Nautical Twilight 5:42 AM EDT 8:02 PM EDT
Astronomical Twilight 5:08 AM EDT 8:36 PM EDT
Moon 12:18 AM EDT (3/24) 9:37 AM EDT (3/24)
Length of Visible Light 13h 14m
Length of Day
12h 19m
Waning Gibbous, 69% of the Moon is Illuminated
Mar 24
Waning Gibbous
Mar 26
Last Quarter
Apr 3
New
Apr 11
First Quarter
Apr 17
Full

Hourly Weather History & Observations

Time (EDT) Temp. Windchill Dew Point Humidity Pressure Visibility Wind Dir Wind Speed Gust Speed Precip Events Conditions
12:06 AM 33.8 °F 25.8 °F 28.4 °F 81% 29.66 in 10.0 mi ENE 10.4 mph - N/A   Overcast
12:30 AM 33.8 °F 27.0 °F 28.4 °F 81% 29.65 in 10.0 mi ENE 8.1 mph - N/A   Overcast
12:51 AM 33.1 °F 26.1 °F 28.9 °F 85% 29.65 in 10.0 mi ENE 8.1 mph - N/A   Overcast
1:04 AM 33.8 °F 27.0 °F 28.4 °F 81% 29.62 in 10.0 mi ENE 8.1 mph - N/A   Overcast
1:51 AM 33.1 °F 24.9 °F 27.0 °F 78% 29.63 in 10.0 mi NE 10.4 mph - N/A   Overcast
2:51 AM 33.1 °F 24.9 °F 25.0 °F 72% 29.60 in 9.0 mi NNE 10.4 mph - 0.00 in   Overcast
3:35 AM 33.8 °F 25.8 °F 23.0 °F 65% 29.60 in 9.0 mi NE 10.4 mph - 0.00 in Snow Light Snow
3:51 AM 32.0 °F 21.2 °F 21.9 °F 66% 29.60 in 4.0 mi NNE 16.1 mph 25.3 mph 0.00 in Snow Light Snow
4:51 AM 30.9 °F 21.7 °F 25.0 °F 79% 29.59 in 4.0 mi NE 11.5 mph - 0.00 in Snow Light Snow
5:11 AM 30.2 °F 21.9 °F 24.8 °F 80% 29.59 in 2.0 mi NNE 9.2 mph - 0.00 in Snow Light Snow
5:33 AM 30.2 °F 23.4 °F 26.6 °F 86% 29.60 in 1.5 mi North 6.9 mph - 0.00 in Snow Light Snow
5:46 AM 30.2 °F 22.6 °F 26.6 °F 86% 29.60 in 1.0 mi North 8.1 mph - 0.01 in Snow Light Snow
5:51 AM 30.0 °F 21.7 °F 28.0 °F 92% 29.61 in 1.2 mi North 9.2 mph - 0.01 in Snow Light Snow
6:25 AM 30.2 °F 21.3 °F 26.6 °F 86% 29.61 in 1.5 mi North 10.4 mph - 0.02 in Snow Light Snow
6:51 AM 30.0 °F 21.7 °F 27.0 °F 88% 29.59 in 1.5 mi North 9.2 mph - 0.03 in Snow Light Snow
7:01 AM 30.2 °F 20.8 °F 26.6 °F 86% 29.59 in 5.0 mi North 11.5 mph - 0.00 in Snow Light Snow
7:11 AM 30.2 °F 20.8 °F 26.6 °F 86% 29.59 in 7.0 mi North 11.5 mph - 0.00 in Snow Light Snow
7:51 AM 30.2 °F 19.8 °F 24.8 °F 80% 29.61 in 10.0 mi North 13.8 mph - N/A Snow Light Snow
8:51 AM 32.0 °F 22.5 °F 26.1 °F 79% 29.62 in 10.0 mi North 12.7 mph - 0.00 in Snow Light Snow
9:51 AM 32.0 °F 21.2 °F 26.1 °F 79% 29.63 in 10.0 mi North 16.1 mph - 0.00 in   Overcast
9:59 AM 33.8 °F 23.9 °F 26.6 °F 75% 29.63 in 10.0 mi North 15.0 mph - N/A   Overcast
10:51 AM 35.1 °F 25.5 °F 27.0 °F 72% 29.64 in 10.0 mi North 15.0 mph 23.0 mph N/A   Mostly Cloudy
11:14 AM 37.4 °F 28.9 °F 26.6 °F 65% 29.63 in 10.0 mi NNE 13.8 mph 23.0 mph N/A   Mostly Cloudy
11:40 AM 37.4 °F 28.5 °F 26.6 °F 65% 29.63 in 10.0 mi North 15.0 mph 23.0 mph N/A   Mostly Cloudy
11:51 AM 39.0 °F 30.6 °F 26.1 °F 60% 29.63 in 10.0 mi North 15.0 mph - N/A   Mostly Cloudy
12:51 PM 39.0 °F 30.3 °F 24.1 °F 55% 29.65 in 10.0 mi North 16.1 mph 20.7 mph N/A   Overcast
1:51 PM 39.9 °F 31.8 °F 24.1 °F 53% 29.65 in 10.0 mi North 15.0 mph - N/A   Mostly Cloudy
2:51 PM 39.0 °F 30.3 °F 24.1 °F 55% 29.67 in 10.0 mi NNE 16.1 mph - N/A   Mostly Cloudy
3:39 PM 37.4 °F 28.9 °F 26.6 °F 65% 29.68 in 10.0 mi NNE 13.8 mph 23.0 mph 0.00 in Snow Light Snow
3:51 PM 39.0 °F 30.3 °F 26.1 °F 60% 29.68 in 9.0 mi North 16.1 mph 21.9 mph 0.00 in   Mostly Cloudy
4:51 PM 39.0 °F 30.6 °F 27.0 °F 62% 29.70 in 10.0 mi NNE 15.0 mph - N/A   Unknown
5:51 PM 37.0 °F 29.8 °F 26.1 °F 65% 29.73 in 9.0 mi NNE 10.4 mph - 0.00 in Snow Light Snow
6:51 PM 36.0 °F 31.1 °F 25.0 °F 64% 29.76 in 10.0 mi NE 5.8 mph - 0.00 in   Mostly Cloudy
7:51 PM 34.0 °F 31.0 °F 25.0 °F 70% 29.78 in 10.0 mi NE 3.5 mph - N/A   Mostly Cloudy
8:51 PM 34.0 °F - 25.0 °F 70% 29.81 in 10.0 mi Calm Calm - 0.00 in Snow Light Snow
9:51 PM 33.1 °F - 25.0 °F 72% 29.83 in 9.0 mi Calm Calm - 0.00 in   Overcast
10:51 PM 34.0 °F 31.0 °F 26.1 °F 73% 29.83 in 10.0 mi West 3.5 mph - N/A   Overcast
11:51 PM 33.1 °F 28.7 °F 27.0 °F 78% 29.84 in 9.0 mi WNW 4.6 mph - N/A   Mostly Cloudy